sat.trackr.live / text

‹ back to catalog

STARLINK-4726

NORAD 53802 · 2022-111AF

PAYLOAD ACTIVE UNKNOWN

§ Identity

Operator
Country
US
Launch date
2022-09-11
Launch site
AFETR
Launch vehicle
Mass (kg)
RCS (m²)

Purposes: comms

External: N2YO · Heavens-Above · Gunter

§ Orbital elements

Epoch: 2026-05-25T02:24:02.714688Z

Period
95.44 min
Inclination
53.2166°
Eccentricity
0.0001391
Mean motion
15.08855464 rev/d
Perigee alt
538.7 km
Apogee alt
540.7 km
Semi-major
6,917.8 km
B*
1.5693e-4
RAAN
280.9667°
Arg perigee
84.2696°
Mean anomaly
275.8454°
Rev number
20,535

§ Raw data

STARLINK-47261 53802U 22111AF  26145.10003142  .00002211  00000+0  15693-3 0  99962 53802  53.2166 280.9667 0001391  84.2696 275.8454 15.08855464205356

JSON: /api/v1/satellites/53802 · /tle

For live sub-satellite position, see the globe view (requires WebGL).

§ Visibility from observer

Set your observer location to see the next 7 days of passes ≥ 10°. The values pass through the URL so the page stays shareable.

No JS? Fill the form by hand. The geolocation button needs JavaScript.